Kazan, Russia

8:41 AM MSK on December 11, 2019 (GMT +0300)
Kazan

Weather History for UWKD - October, 2019

Change the Weather History Date:

Monday, October 28, 2019

  Actual Average (WUND) Record (WUND)
Temperature  
Mean Temperature 47 °F -  
Max Temperature 55 °F - - (-1)
Min Temperature 39 °F - - (-1)
Degree Days  
Heating Degree Days 18    
Moisture  
Dew Point 35 °F    
Average Humidity 59    
Maximum Humidity 82    
Minimum Humidity 19    
Precipitation  
Precipitation 0.00 in - - ()
Sea Level Pressure  
Sea Level Pressure 29.43 in    
Wind  
Wind Speed 16 mph ()    
Max Wind Speed 40 mph    
Max Gust Speed 52 mph    
Visibility 6.2 miles    
Events      
Averages and records for this station are not official NWS values.
T = Trace of Precipitation, MM = Missing Value Source: Averaged Metar Reports

Daily Weather History Graph

Daily Weather History Graph

Search for Another Location

Airport or City:

Astronomy

Oct. 28, 2019 Rise Set
Actual Time 6:39 AM MSK 4:13 PM MSK
Civil Twilight 6:00 AM MSK 4:51 PM MSK
Nautical Twilight 5:17 AM MSK 5:35 PM MSK
Astronomical Twilight 4:34 AM MSK 6:17 PM MSK
Moon 6:23 AM MSK (10/28) 4:48 PM MSK (10/28)
Length of Visible Light 10h 51m
Length of Day
9h 34m
New Moon, 0% of the Moon is Illuminated
Oct 28
New Moon
Nov 4
First Quarter
Nov 12
Full
Nov 20
Last Quarter
Nov 26
New

Hourly Weather History & Observations

Time (MSK) Temp. Windchill Dew Point Humidity Pressure Visibility Wind Dir Wind Speed Gust Speed Precip Events Conditions
12:00 AM 52 °F - 48 °F 81% 29.46 in 6 mi WSW 8.9 mph - -   Partly Cloudy
12:30 AM 51.8 °F - 46.4 °F 82% 29.44 in 6.2 mi SW 8.9 mph - N/A   Overcast
1:30 AM 51.8 °F - 46.4 °F 82% 29.39 in 6.2 mi SW 11.2 mph 22.4 mph N/A   Overcast
2:00 AM 51.8 °F - 46.4 °F 82% 29.39 in 6.2 mi SW 11.2 mph 22.4 mph N/A   Overcast
2:30 AM 51.8 °F - 46.4 °F 82% 29.36 in 6.2 mi SW 11.2 mph 22.4 mph N/A   Overcast
3:00 AM 52 °F - 47 °F 76% 29.36 in 6 mi WSW 11.2 mph - -   Partly Cloudy
3:00 AM 51.8 °F - 44.6 °F 76% 29.33 in 6.2 mi SW 13.4 mph 24.6 mph N/A   Mostly Cloudy
3:30 AM 51.8 °F - 44.6 °F 76% 29.30 in 6.2 mi SW 15.7 mph 26.8 mph N/A   Mostly Cloudy
4:00 AM 51.8 °F - 44.6 °F 76% 29.30 in 6.2 mi WSW 15.7 mph 26.8 mph N/A   Mostly Cloudy
4:30 AM 51.8 °F - 44.6 °F 76% 29.30 in 6.2 mi SW 15.7 mph 26.8 mph N/A   Mostly Cloudy
5:00 AM 51.8 °F - 44.6 °F 76% 29.30 in 6.2 mi WSW 20.1 mph 31.3 mph N/A   Mostly Cloudy
5:30 AM 51.8 °F - 44.6 °F 76% 29.27 in 6.2 mi WSW 15.7 mph 26.8 mph N/A   Mostly Cloudy
6:00 AM 52 °F - 45 °F 70% 29.28 in 6 mi WSW 11.2 mph - -   Overcast
6:30 AM 51.8 °F - 44.6 °F 76% 29.27 in 6.2 mi WSW 15.7 mph 26.8 mph N/A   Mostly Cloudy
7:00 AM 51.8 °F - 44.6 °F 76% 29.27 in 6.2 mi WSW 15.7 mph 26.8 mph N/A   Overcast
7:30 AM 51.8 °F - 44.6 °F 76% 29.27 in 6.2 mi WSW 15.7 mph 26.8 mph N/A   Mostly Cloudy
8:30 AM 51.8 °F - 44.6 °F 76% 29.27 in 6.2 mi WSW 17.9 mph 29.1 mph N/A   Mostly Cloudy
9:00 AM 53 °F - 45 °F 67% 29.26 in 6 mi WSW 11.2 mph - -   Overcast
9:00 AM 53.6 °F - 44.6 °F 72% 29.27 in 6.2 mi WSW 15.7 mph 26.8 mph N/A   Mostly Cloudy
9:30 AM 53.6 °F - 42.8 °F 67% 29.27 in 6.2 mi West 22.4 mph 33.6 mph N/A   Overcast
10:00 AM 53.6 °F - 42.8 °F 67% 29.27 in 6.2 mi West 33.6 mph 44.7 mph N/A   Overcast
10:30 AM 55.4 °F - 41.0 °F 58% 29.27 in 6.2 mi West 29.1 mph 40.3 mph N/A   Mostly Cloudy
11:30 AM 55.4 °F - 39.2 °F 54% 29.30 in 6.2 mi West 29.1 mph 40.3 mph N/A   Mostly Cloudy
12:00 PM 53 °F - 23 °F 19% 29.34 in 6 mi West 15.7 mph - -   Clear
12:00 PM 53.6 °F - 28.4 °F 38% 29.33 in 6.2 mi West 31.3 mph 42.5 mph N/A   Mostly Cloudy
12:30 PM 51.8 °F - 26.6 °F 38% 29.36 in 6.2 mi West 40.3 mph 51.5 mph N/A   Partly Cloudy
1:00 PM 50.0 °F - 26.6 °F 40% 29.39 in 6.2 mi West 35.8 mph 47.0 mph N/A   Partly Cloudy
1:30 PM 50.0 °F - 26.6 °F 40% 29.39 in 6.2 mi WNW 40.3 mph 51.5 mph N/A   Partly Cloudy
2:30 PM 48.2 °F - 24.8 °F 40% 29.44 in - West 33.6 mph 44.7 mph N/A   Clear
3:00 PM 49 °F - 28 °F 31% 29.48 in 6 mi West 15.7 mph - -   Partly Cloudy
3:00 PM 48.2 °F - 26.6 °F 43% 29.47 in 6.2 mi West 29.1 mph 40.3 mph N/A   Scattered Clouds
3:30 PM 48.2 °F - 24.8 °F 40% 29.47 in 6.2 mi West 33.6 mph 44.7 mph N/A   Scattered Clouds
4:00 PM 46.4 °F 37.3 °F 24.8 °F 43% 29.50 in 6.2 mi West 29.1 mph 40.3 mph N/A   Scattered Clouds
4:30 PM 44.6 °F 35.6 °F 24.8 °F 46% 29.53 in 6.2 mi WNW 24.6 mph 35.8 mph N/A   Scattered Clouds
5:00 PM 44.6 °F 35.6 °F 24.8 °F 46% 29.56 in 6.2 mi West 24.6 mph 35.8 mph N/A   Scattered Clouds
5:30 PM 44.6 °F 35.6 °F 24.8 °F 46% 29.59 in - WNW 24.6 mph 35.8 mph N/A   Clear
6:00 PM 44 °F - 25 °F 34% 29.63 in 6 mi WNW 11.2 mph - -  
6:00 PM 42.8 °F 32.4 °F 24.8 °F 49% 29.59 in - WNW 29.1 mph 40.3 mph N/A   Clear
6:30 PM 42.8 °F 33.2 °F 24.8 °F 49% 29.62 in - WNW 24.6 mph 35.8 mph N/A   Clear
7:30 PM 42.8 °F 37.6 °F 26.6 °F 53% 29.65 in 6.2 mi WNW 8.9 mph - N/A   Mostly Cloudy
8:30 PM 41.0 °F 34.4 °F 24.8 °F 53% 29.68 in 6.2 mi NW 11.2 mph 22.4 mph N/A   Mostly Cloudy
9:00 PM 40 °F - 26 °F 46% 29.73 in 6 mi NW 4.5 mph - -   Mostly Cloudy
9:00 PM 41.0 °F 34.4 °F 26.6 °F 57% 29.71 in 6.2 mi NW 11.2 mph 22.4 mph N/A   Mostly Cloudy
9:30 PM 41.0 °F 34.4 °F 26.6 °F 57% 29.71 in 6.2 mi NNW 11.2 mph - N/A   Overcast
10:00 PM 39.2 °F 32.2 °F 24.8 °F 56% 29.74 in 6.2 mi NW 11.2 mph - N/A   Overcast
10:30 PM 39.2 °F 33.1 °F 26.6 °F 61% 29.74 in - NNW 8.9 mph - N/A   Clear